Christchurch, New Zealand

11:06 AM NZST on July 27, 2017 (GMT +1200)
Christchurch International

Weather History for NZCH - August, 2014

Change the Weather History Date:

Saturday, August 9, 2014

  Actual Average Record
Temperature  
Mean Temperature 39 °F -  
Max Temperature 50 °F 52 °F 66 °F (2007)
Min Temperature 28 °F 35 °F 26 °F (1997)
Degree Days  
Heating Degree Days 26    
Moisture  
Dew Point 29 °F    
Average Humidity 68    
Maximum Humidity 100    
Minimum Humidity 43    
Precipitation  
Precipitation 0.00 in - - ()
Sea Level Pressure  
Sea Level Pressure 30.20 in    
Wind  
Wind Speed 6 mph ()    
Max Wind Speed 17 mph    
Max Gust Speed -    
Visibility 6.2 miles    
Events Rain    
Averages and records for this station are not official NWS values.
T = Trace of Precipitation, MM = Missing Value Source: Averaged Metar Reports

Daily Weather History Graph

Daily Weather History Graph

Search for Another Location

Airport or City:

Trip Planner

Search our weather history database for the weather conditions in past years. The results will help you decide how hot, cold, wet, or windy it might be!

Date:

Astronomy

Aug. 09, 2014 Rise Set
Actual Time 7:33 AM NZST 5:37 PM NZST
Civil Twilight 7:03 AM NZST 6:07 PM NZST
Nautical Twilight 6:29 AM NZST 6:41 PM NZST
Astronomical Twilight 5:56 AM NZST 7:15 PM NZST
Moon 3:54 PM NZST (8/9) 5:41 AM NZST (8/9)
Length of Visible Light 11h 04m
Length of Day
10h 04m
Waxing Gibbous, 95% of the Moon is Illuminated
Aug 9
Waxing Gibbous
Aug 11
Full
Aug 18
Last Quarter
Aug 26
New
Sep 2
First Quarter

Hourly Weather History & Observations

Time (NZST) Temp. Windchill Dew Point Humidity Pressure Visibility Wind Dir Wind Speed Gust Speed Precip Events Conditions
12:00 AM 39.2 °F 30.2 °F 33.8 °F 81% 30.12 in 6.2 mi WSW 17.3 mph - N/A Rain Light Rain Showers
12:30 AM 39.2 °F 33.0 °F 32.0 °F 75% 30.12 in 6.2 mi WSW 9.2 mph - N/A   Mostly Cloudy
1:00 AM 39.2 °F 32.5 °F 30.2 °F 70% 30.15 in 6.2 mi WSW 10.4 mph - N/A   Mostly Cloudy
1:30 AM 39.2 °F 33.0 °F 30.2 °F 70% 30.15 in 6.2 mi WSW 9.2 mph - N/A   Mostly Cloudy
2:00 AM 37.4 °F 30.8 °F 30.2 °F 75% 30.15 in 6.2 mi WSW 9.2 mph - N/A   Partly Cloudy
2:30 AM 37.4 °F 32.1 °F 28.4 °F 70% 30.15 in 6.2 mi WSW 6.9 mph - N/A   Unknown
3:00 AM 37.4 °F 31.4 °F 28.4 °F 70% 30.18 in 6.2 mi WSW 8.1 mph - N/A   Partly Cloudy
3:30 AM 37.4 °F 31.4 °F 26.6 °F 65% 30.18 in 6.2 mi West 8.1 mph - N/A   Scattered Clouds
4:00 AM 37.4 °F 30.8 °F 26.6 °F 65% 30.18 in 6.2 mi WSW 9.2 mph - N/A   Unknown
4:30 AM 39.2 °F 33.0 °F 26.6 °F 61% 30.18 in 6.2 mi WSW 9.2 mph - N/A   Mostly Cloudy
5:30 AM 35.6 °F 29.2 °F 26.6 °F 70% 30.21 in 6.2 mi SW 8.1 mph - N/A   Unknown
6:00 AM 37.4 °F 31.4 °F 24.8 °F 60% 30.21 in 6.2 mi WSW 8.1 mph - N/A   Unknown
6:30 AM 37.4 °F 30.8 °F 24.8 °F 60% 30.21 in 6.2 mi WSW 9.2 mph - N/A   Unknown
7:00 AM 39.2 °F 34.2 °F 26.6 °F 61% 30.21 in 6.2 mi WSW 6.9 mph - N/A   Unknown
7:30 AM 35.6 °F 29.9 °F 26.6 °F 70% 30.21 in 6.2 mi West 6.9 mph - N/A   Unknown
8:00 AM 33.8 °F 27.7 °F 24.8 °F 70% 30.21 in 6.2 mi West 6.9 mph - N/A   Unknown
8:30 AM 35.6 °F - 26.6 °F 70% 30.24 in 6.2 mi ENE 1.2 mph - N/A   Partly Cloudy
9:00 AM 37.4 °F - 26.6 °F 65% 30.24 in 6.2 mi SSW 2.3 mph - N/A   Unknown
9:30 AM 39.2 °F 35.9 °F 28.4 °F 65% 30.24 in 6.2 mi West 4.6 mph - N/A   Unknown
10:00 AM 42.8 °F 39.3 °F 30.2 °F 61% 30.24 in 6.2 mi West 5.8 mph - N/A   Unknown
10:30 AM 44.6 °F 40.7 °F 30.2 °F 57% 30.24 in 6.2 mi West 6.9 mph - N/A   Unknown
11:00 AM 46.4 °F 43.5 °F 28.4 °F 50% 30.24 in 6.2 mi WSW 5.8 mph - N/A   Unknown
11:30 AM 46.4 °F 43.5 °F 30.2 °F 53% 30.24 in 6.2 mi WSW 5.8 mph - N/A   Unknown
12:00 PM 46.4 °F 42.9 °F 30.2 °F 53% 30.24 in 6.2 mi SSW 6.9 mph - N/A   Unknown
12:30 PM 46.4 °F 43.5 °F 30.2 °F 53% 30.24 in 6.2 mi SW 5.8 mph - N/A   Unknown
1:00 PM 48.2 °F - 30.2 °F 50% 30.21 in 6.2 mi SW 3.5 mph - N/A   Unknown
1:30 PM 48.2 °F - 30.2 °F 50% 30.21 in 6.2 mi South 3.5 mph - N/A   Unknown
2:00 PM 50.0 °F - 28.4 °F 43% 30.21 in 6.2 mi SW 3.5 mph - N/A   Unknown
2:30 PM 48.2 °F - 32.0 °F 54% 30.21 in 6.2 mi South 3.5 mph - N/A   Unknown
3:00 PM 48.2 °F - 28.4 °F 46% 30.18 in 6.2 mi SSW 2.3 mph - N/A   Unknown
3:30 PM 48.2 °F - 28.4 °F 46% 30.18 in 6.2 mi South 3.5 mph - N/A   Unknown
4:00 PM 50.0 °F - 28.4 °F 43% 30.18 in 6.2 mi East 1.2 mph - N/A   Unknown
4:30 PM 50.0 °F - 30.2 °F 47% 30.18 in 6.2 mi NE 1.2 mph - N/A   Unknown
5:00 PM 44.6 °F 42.2 °F 33.8 °F 66% 30.18 in 6.2 mi NE 4.6 mph - N/A   Unknown
5:30 PM 41.0 °F 36.4 °F 32.0 °F 70% 30.18 in 6.2 mi NNE 6.9 mph - N/A   Unknown
6:00 PM 41.0 °F 39.0 °F 32.0 °F 70% 30.21 in 6.2 mi NE 3.5 mph - N/A   Unknown
6:30 PM 41.0 °F 39.0 °F 32.0 °F 70% 30.21 in 6.2 mi NE 3.5 mph - N/A   Unknown
7:00 PM 39.2 °F - 32.0 °F 75% 30.21 in 6.2 mi NE 2.3 mph - N/A   Unknown
7:30 PM 35.6 °F - 32.0 °F 87% 30.21 in 6.2 mi NNE 1.2 mph - N/A   Unknown
8:00 PM 33.8 °F - 30.2 °F 87% 30.21 in 6.2 mi North 1.2 mph - N/A   Unknown
8:30 PM 32.0 °F - 30.2 °F 93% 30.21 in 6.2 mi Calm Calm - N/A   Unknown
9:00 PM 30.2 °F - 28.4 °F 93% 30.21 in 6.2 mi ESE 1.2 mph - N/A   Unknown
9:30 PM 33.8 °F - 30.2 °F 87% 30.21 in 6.2 mi NNE 2.3 mph - N/A   Unknown
10:00 PM 30.2 °F - 28.4 °F 93% 30.21 in 6.2 mi Calm Calm - N/A   Unknown
10:30 PM 28.4 °F - 26.6 °F 93% 30.21 in 6.2 mi Calm Calm - N/A   Unknown
11:00 PM 30.2 °F - 28.4 °F 93% 30.21 in 6.2 mi Calm Calm - N/A   Unknown
11:30 PM 30.2 °F - 30.2 °F 100% 30.21 in 6.2 mi North 2.3 mph - N/A   Unknown